Kinston, NC

10:19 AM EST on January 21, 2018 (GMT -0500)
Kinston Regional Jetport / Stallings Field

Weather History for KISO - May, 2013

Change the Weather History Date:

Wednesday, May 22, 2013

  Actual Average Record
Temperature  
Mean Temperature 74 °F -  
Max Temperature 80 °F 80 °F 96 °F (1975)
Min Temperature 67 °F 60 °F 45 °F (1992)
Cooling Degree Days 8    
Growing Degree Days 24 (Base 50)    
Moisture  
Dew Point 67 °F    
Average Humidity 88    
Maximum Humidity 100    
Minimum Humidity 69    
Precipitation  
Precipitation 0.00 in - - ()
Sea Level Pressure  
Sea Level Pressure 30.02 in    
Wind  
Wind Speed 6 mph (South)    
Max Wind Speed 10 mph    
Max Gust Speed 16 mph    
Visibility 8 miles    
Events Rain    
Averages and records for this station are not official NWS values.
T = Trace of Precipitation, MM = Missing Value Source: NWS Daily Summary

Daily Weather History Graph

Daily Weather History Graph

Search for Another Location

Airport or City:

Trip Planner

Search our weather history database for the weather conditions in past years. The results will help you decide how hot, cold, wet, or windy it might be!

Date:

Astronomy

May. 22, 2013 Rise Set
Actual Time 6:01 AM EDT 8:13 PM EDT
Civil Twilight 5:32 AM EDT 8:42 PM EDT
Nautical Twilight 4:57 AM EDT 9:17 PM EDT
Astronomical Twilight 4:19 AM EDT 9:55 PM EDT
Moon 5:38 PM EDT (5/22) 3:57 AM EDT (5/22)
Length of Visible Light 15h 09m
Length of Day
14h 12m
Waxing Gibbous, 91% of the Moon is Illuminated
May 22
Waxing Gibbous
May 25
Full
May 31
Last Quarter
Jun 8
New
Jun 16
First Quarter

Hourly Weather History & Observations

Time (EDT) Temp. Heat Index Dew Point Humidity Pressure Visibility Wind Dir Wind Speed Gust Speed Precip Events Conditions
12:15 AM 69.4 °F - 67.5 °F 93% 30.04 in 10.0 mi South 8.1 mph - N/A   Clear
12:35 AM 69.1 °F - 67.1 °F 93% 30.04 in 10.0 mi SSW 6.9 mph - N/A   Clear
12:55 AM 68.9 °F - 66.7 °F 93% 30.05 in 10.0 mi SSW 5.8 mph - N/A   Clear
1:15 AM 68.9 °F - 66.7 °F 93% 30.04 in 10.0 mi SSW 5.8 mph - N/A   Clear
1:35 AM 68.5 °F - 66.6 °F 93% 30.05 in 10.0 mi SSW 4.6 mph - N/A   Clear
1:55 AM 68.9 °F - 66.7 °F 93% 30.04 in 10.0 mi SSW 5.8 mph - N/A   Clear
2:15 AM 68.5 °F - 66.6 °F 93% 30.04 in 10.0 mi SSW 4.6 mph - N/A   Clear
2:35 AM 68.4 °F - 66.6 °F 94% 30.04 in 10.0 mi SSW 6.9 mph - N/A   Clear
2:55 AM 68.5 °F - 66.7 °F 94% 30.03 in 10.0 mi SSW 5.8 mph - N/A   Clear
3:15 AM 68.2 °F - 66.4 °F 94% 30.03 in 10.0 mi SSW 3.5 mph - N/A   Clear
3:35 AM 67.6 °F - 66.2 °F 95% 30.03 in 7.0 mi SW 3.5 mph - N/A   Clear
3:55 AM 68.0 °F - 66.6 °F 95% 30.03 in 7.0 mi South 3.5 mph - N/A   Clear
4:15 AM 68.2 °F - 66.7 °F 95% 30.03 in 7.0 mi South 3.5 mph - N/A   Clear
4:35 AM 68.0 °F - 66.6 °F 95% 30.03 in 7.0 mi South 4.6 mph - N/A   Clear
4:55 AM 68.0 °F - 66.7 °F 96% 30.02 in 7.0 mi SSW 3.5 mph - N/A   Clear
5:15 AM 68.0 °F - 66.6 °F 95% 30.02 in 5.0 mi South 4.6 mph - N/A   Scattered Clouds
5:35 AM 68.0 °F - 67.1 °F 97% 30.02 in 5.0 mi South 5.8 mph - N/A   Mostly Cloudy
5:55 AM 68.0 °F - 66.9 °F 96% 30.02 in 4.0 mi South 5.8 mph - N/A   Overcast
6:15 AM 68.0 °F - 67.1 °F 97% 30.02 in 3.0 mi South 5.8 mph - N/A   Overcast
6:35 AM 68.2 °F - 67.3 °F 97% 30.03 in 3.0 mi South 5.8 mph - N/A   Mist
6:55 AM 68.9 °F - 67.8 °F 96% 30.03 in 4.0 mi South 3.5 mph - N/A   Scattered Clouds
6:56 AM 68.0 °F - 68.0 °F 100% 30.03 in 2.0 mi South 4.6 mph - N/A   Scattered Clouds
7:56 AM 71.6 °F - 68.0 °F 88% 30.04 in 5.0 mi SSW 5.8 mph - N/A   Clear
8:56 AM 75.2 °F - 69.8 °F 83% 30.06 in 7.0 mi SW 6.9 mph - N/A   Scattered Clouds
9:56 AM 77.0 °F - 68.0 °F 74% 30.05 in 7.0 mi WSW 8.1 mph - N/A   Mostly Cloudy
10:56 AM 77.0 °F - 68.0 °F 74% 30.07 in 2.0 mi SW 8.1 mph - N/A Rain Light Rain
11:05 AM 77.0 °F - 68.0 °F 74% 30.07 in 5.0 mi WSW 5.8 mph - N/A   Mostly Cloudy
11:56 AM 75.2 °F - 69.8 °F 83% 30.06 in 10.0 mi South 6.9 mph - N/A   Scattered Clouds
12:56 PM 78.8 °F - 68.0 °F 69% 30.04 in 7.0 mi South 6.9 mph - N/A   Scattered Clouds
1:56 PM 80.6 °F - - N/A% 30.02 in 10.0 mi SW 5.8 mph - N/A   Scattered Clouds
2:56 PM 75.2 °F - 69.8 °F 83% 30.02 in 7.0 mi SSW 3.5 mph - N/A   Clear
3:56 PM 73.4 °F - 69.8 °F 88% 30.00 in 7.0 mi SSE 8.1 mph - N/A   Mostly Cloudy
4:56 PM 77.0 °F - 71.6 °F 83% 29.98 in 7.0 mi South 6.9 mph - N/A   Clear
5:56 PM 80.6 °F 83.9 °F 69.8 °F 70% 29.97 in 7.0 mi SSE 10.4 mph 16.1 mph N/A   Clear
6:56 PM 77.0 °F - 68.0 °F 74% 29.96 in 10.0 mi South 6.9 mph - N/A   Clear
7:56 PM 75.2 °F - 68.0 °F 78% 29.98 in 10.0 mi South 6.9 mph - N/A   Clear
8:56 PM 73.4 °F - 66.2 °F 78% 29.98 in 10.0 mi South 5.8 mph - N/A   Clear
9:15 PM 73.2 °F - 66.2 °F 79% 29.99 in 10.0 mi South 6.9 mph - N/A   Clear
9:35 PM 72.7 °F - 66.2 °F 80% 30.00 in 10.0 mi South 6.9 mph - N/A   Clear
9:55 PM 72.5 °F - 66.2 °F 81% 30.01 in 10.0 mi South 8.1 mph - N/A   Clear
10:15 PM 71.8 °F - 66.6 °F 84% 30.01 in 10.0 mi South 6.9 mph - N/A   Clear
10:35 PM 71.6 °F - 66.7 °F 85% 30.01 in 10.0 mi South 8.1 mph - N/A   Clear
10:55 PM 71.1 °F - 67.1 °F 87% 30.01 in 10.0 mi South 6.9 mph - N/A   Clear
11:15 PM 70.7 °F - 67.6 °F 90% 30.01 in 10.0 mi South 5.8 mph - N/A   Clear
11:35 PM 70.3 °F - 67.8 °F 92% 30.01 in 10.0 mi South 5.8 mph - N/A   Clear
11:55 PM 70.3 °F - 68.0 °F 92% 30.01 in 10.0 mi South 4.6 mph - N/A   Clear